This demonstration page uses our WeatherBlox Daily Observations layout. Learn more.

Left ArrowRight Arrow

Hourly Observations for December 30, 2016

Temp ( °F °C ) Dew Point ( °F °C ) Humidity (%) Winds ( mph kmh ) Pressure ( in mb ) Visibility ( mi km ) Precip ( " mm )
12:53 am 00:53 Cloudy 33 0.6 22 -5.6 64 64 WSW 9 15 29.76 1008 10 16 0.00 0.00
1:53 am 01:53 Clear 36 2.2 25 -3.9 64 64 W 23 37 29.74 1007 10 16 0.00 0.00
2:53 am 02:53 Mostly Cloudy 38 3.3 28 -2.2 68 68 W 28 44 29.73 1007 10 16 0.00 0.00
3:53 am 03:53 Cloudy 37 2.8 29 -1.7 73 73 NW 21 33 29.78 1009 10 16 0.00 0.00
4:53 am 04:53 Cloudy 35 1.7 29 -1.7 78 78 NW 8 13 29.80 1009 10 16 0.00 0.00
5:53 am 05:53 Mostly Cloudy 33 0.6 29 -1.7 85 85 WNW 10 17 29.83 1010 10 16 0.00 0.03
6:53 am 06:53 Mostly Clear 31 -0.6 26 -3.3 82 82 W 9 15 29.85 1011 10 16 0.00 0.00
7:53 am 07:53 Clear 29 -1.7 22 -5.6 75 75 WNW 12 19 29.87 1011 10 16 0.00 0.00
8:53 am 08:53 Sunny 26 -3.3 21 -6.1 81 81 WSW 9 15 29.88 1012 10 16 0.00 0.00
9:53 am 09:53 Sunny 25 -3.9 18 -7.8 75 75 WNW 9 15 29.93 1013 10 16 0.00 0.00
10:53 am 10:53 Mostly Sunny 24 -4.4 17 -8.3 75 75 WNW 7 11 29.97 1015 10 16 0.00 0.00
11:53 am 11:53 Mostly Sunny 23 -5 16 -8.9 74 74 WNW 14 22 29.99 1016 10 16 0.00 0.00
12:24 pm 12:24 Mostly Cloudy 25 -4 18 -8 74 74 NW 14 22 30.06 1018 10 16 0.00 0.00
12:34 pm 12:34 Partly Cloudy 25 -4 18 -8 74 74 NNW 15 24 30.03 1017 10 16 0.00 0.00
12:53 pm 12:53 Sunny 25 -3.9 17 -8.3 72 72 NW 15 24 29.97 1015 10 16 0.00 0.00
1:53 pm 13:53 Sunny 24 -4.4 18 -7.8 77 77 WNW 14 22 29.96 1015 10 16 0.00 0.00
2:42 pm 14:42 Mostly Cloudy 25 -4 18 -8 74 74 W 9 15 30.03 1017 10 16 0.00 0.00
2:53 pm 14:53 Cloudy 24 -4.4 19 -7.2 81 81 W 8 13 29.97 1015 10 16 0.00 0.00
3:23 pm 15:23 Cloudy 24 -4.4 18 -7.8 77 77 W 9 15 30.03 1017 10 16 0.00 0.00
3:53 pm 15:53 Cloudy 23 -5 18 -7.8 81 81 SW 12 19 29.97 1015 10 16 0.00 0.00
4:16 pm 16:16 Cloudy 23 -5 18 -8 80 80 WSW 12 19 30.03 1017 10 16 0.00 0.00
4:53 pm 16:53 Cloudy 22 -5.6 18 -7.8 85 85 SW 10 17 29.97 1015 10 16 0.00 0.00
5:35 pm 17:35 Mostly Cloudy 18 -7.8 15 -9.4 88 88 SW 9 15 30.06 1018 10 16 0.00 0.00
5:53 pm 17:53 Partly Cloudy 16 -8.9 14 -10 92 92 SW 9 15 29.98 1015 10 16 0.00 0.00
6:53 pm 18:53 Mostly Clear 14 -10 12 -11.1 92 92 SSW 10 17 29.98 1015 10 16 0.00 0.00
7:53 pm 19:53 Clear 11 -11.7 9 -12.8 92 92 SW 10 17 29.97 1015 10 16 0.00 0.00
8:53 pm 20:53 Clear 9 -12.8 7 -13.9 92 92 WSW 7 11 29.95 1014 10 16 0.00 0.00
9:53 pm 21:53 Clear 11 -11.7 8 -13.3 88 88 W 6 9 29.92 1013 10 16 0.00 0.00
10:53 pm 22:53 Clear 12 -11.1 9 -12.8 87 87 SW 13 20 29.89 1012 10 16 0.00 0.00
11:53 pm 23:53 Clear 15 -9.4 12 -11.1 88 88 SW 18 30 29.87 1011 10 16 0.00 0.00

Powered by AerisWeather